Flag for United Kingdom Weather past 2 weeks in Plymouth, England, United Kingdom

Now
57 °F

Passing clouds.


Feels Like: 57 °F
Forecast: 58 / 64 °F
Wind: 3 mph from Southwest

Location: Exeter Airport

Current Time: Aug 3, 2015 at 10:55:26 PM

Latest Report: Aug 3, 2015 at 10:20 PM


Visibility: N/A

Pressure: 29.86 "Hg

Humidity: 82%

Dew point: 52 °F

Location of PlymouthLocation

Historic Weather in Plymouth — Graph

°F

Plymouth temperature yesterday

Maximum temperature yesterday: 68 °F (at 2:50 PM)
Minimum temperature yesterday: 50 °F (at 5:50 AM)
Average temperature yesterday: 62 °F

Past Weeks' High & Low Weather Summary

 TemperatureHumidityPressure
High73 °F (Jul 20, 2:50 PM)100% (Jul 20, 6:20 AM)30.15 "Hg (Jul 20, 6:20 AM)
Low39 °F (Jul 31, 6:20 AM)46% (Jul 25, 2:50 PM)29.47 "Hg (Jul 26, 1:20 PM)
Average60 °F77%29.90 "Hg
* Reported Jul 19 9:20 PM — Aug 3 9:50 PM, Plymouth, Weather by CustomWeather, © 2015

Note: Actual official high and low records may vary slightly from our data, if they occured in-between our weather recording intervals... More about our weather records

Advertising

Plymouth weather history for previous 24 hours

 ConditionsComfort  
Time TempWeatherWind HumidityBarometerVisibility
9:50 PM
Mon, Aug 3
59 °FPassing clouds.6 mph77%29.86 "HgN/A
9:20 PM59 °FPassing clouds.10 mph77%29.86 "HgN/A
8:50 PM61 °FPassing clouds.14 mph68%29.86 "HgN/A
8:20 PM63 °FPassing clouds.13 mph64%29.83 "HgN/A
7:50 PM64 °FPassing clouds.14 mph64%29.83 "HgN/A
7:20 PM66 °FPassing clouds.15 mph60%29.83 "HgN/A
6:50 PM66 °FPassing clouds.16 mph56%29.83 "HgN/A
6:20 PM66 °FPassing clouds.13 mph60%29.83 "HgN/A
5:50 PM66 °FPassing clouds.15 mph64%29.83 "HgN/A
5:20 PM66 °FPassing clouds.15 mph64%29.83 "HgN/A
4:50 PM66 °FScattered clouds.15 mph64%29.83 "HgN/A
4:20 PM66 °FScattered clouds.16 mph64%29.83 "HgN/A
3:50 PM66 °FScattered clouds.15 mph64%29.83 "HgN/A
3:20 PM68 °FScattered clouds.17 mph56%29.86 "HgN/A
2:50 PM68 °FScattered clouds.17 mph56%29.83 "HgN/A
2:20 PM68 °FScattered clouds.18 mph56%29.83 "HgN/A
1:20 PM68 °FScattered clouds.15 mph60%29.86 "HgN/A
12:50 PM66 °FScattered clouds.14 mph64%29.83 "HgN/A
12:20 PM66 °FScattered clouds.17 mph64%29.86 "HgN/A
11:50 AM66 °FScattered clouds.15 mph64%29.83 "HgN/A
11:20 AM66 °FScattered clouds.13 mph64%29.83 "HgN/A
10:50 AM66 °FScattered clouds.13 mph68%29.83 "HgN/A
10:20 AM64 °FScattered clouds.17 mph68%29.83 "HgN/A
9:50 AM64 °FScattered clouds.9 mph78%29.83 "HgN/A
9:20 AM63 °FScattered clouds.10 mph83%29.83 "HgN/A
8:50 AM64 °FScattered clouds.17 mph83%29.80 "HgN/A
8:20 AM64 °FScattered clouds.15 mph83%29.80 "HgN/A
7:50 AM63 °FScattered clouds.8 mph88%29.80 "HgN/A
7:20 AM63 °FScattered clouds.9 mph88%29.80 "HgN/A
6:50 AM63 °FScattered clouds.10 mph94%29.80 "HgN/A
6:20 AM63 °FPassing clouds.9 mph94%29.77 "HgN/A
5:50 AM63 °FPassing clouds.9 mph94%29.77 "HgN/A
2:20 AM63 °FPassing clouds.5 mph94%29.77 "HgN/A
1:50 AM63 °FPassing clouds.6 mph94%29.77 "HgN/A
1:20 AM63 °FPassing clouds.6 mph94%29.77 "HgN/A
12:50 AM63 °FPassing clouds.7 mph88%29.77 "HgN/A
12:20 AM63 °FClear.8 mph88%29.77 "Hg10 mi
11:50 PM
Sun, Aug 2
63 °FClear.9 mph83%29.80 "Hg10 mi
11:20 PM61 °FClear.7 mph88%29.80 "Hg10 mi
10:50 PM63 °FClear.8 mph83%29.80 "Hg10 mi
10:20 PM63 °FPassing clouds.9 mph83%29.83 "HgN/A
Weather by CustomWeather, © 2015

See weather overviewHow to use our weather pages